This is the latest recevied weather packets stored in our database for station/object CQ0XSM-11. If no packets are shown the sender has not sent any weather packets the latest 10 day(s).
| Time | Temp. | Humidity | Pressure | Rain* | Wind** | Luminosity | Snow |
|---|---|---|---|---|---|---|---|
| 1777306629 | 28.33° C | 9% | 990.9 hPa | 0 mm | - | - | - |
| 1777306318 | 27.78° C | 10% | 990.9 hPa | 0 mm | - | - | - |
| 1777306027 | 27.22° C | 10% | 990.8 hPa | 0 mm | - | - | - |
| 1777305701 | 26.67° C | 11% | 990.9 hPa | 0 mm | - | - | - |
| 1777305455 | 26.67° C | 12% | 991 hPa | 0 mm | - | - | - |
| 1777305094 | 26.67° C | 11% | 991 hPa | 0 mm | - | - | - |
| 1777304793 | 27.22° C | 10% | 991.1 hPa | 0 mm | - | - | - |
| 1777304489 | 27.22° C | 9% | 991.1 hPa | 0 mm | - | - | - |
| 1777304210 | 27.78° C | 7% | 991.2 hPa | 0 mm | - | - | - |
| 1777303883 | 28.33° C | 7% | 991.3 hPa | 0 mm | - | - | - |
| 1777303630 | 28.33° C | 6% | 991.2 hPa | 0 mm | - | - | - |
| 1777303276 | 28.33° C | 5% | 991.4 hPa | 0 mm | - | - | - |
| 1777302982 | 27.78° C | 6% | 991.4 hPa | 0 mm | - | - | - |
| 1777302370 | 26.67° C | 8% | 991.5 hPa | 0 mm | - | - | - |
| 1777301796 | 27.78° C | 8% | 991.7 hPa | 0 mm | - | - | - |
| 1777301457 | 28.33° C | 8% | 991.8 hPa | 0 mm | - | - | - |
| 1777301165 | 28.89° C | 7% | 991.9 hPa | 0 mm | - | - | - |
| 1777300851 | 28.89° C | 8% | 991.9 hPa | 0 mm | - | - | - |
| 1777300565 | 29.44° C | 8% | 992.1 hPa | 0 mm | - | - | - |
| 1777300244 | 28.89° C | 9% | 992.1 hPa | 0 mm | - | - | - |
| 1777299950 | 28.33° C | 11% | 992.1 hPa | 0 mm | - | - | - |
| 1777299632 | 28.33° C | 9% | 992.2 hPa | 0 mm | - | - | - |
| 1777299030 | 28.89° C | 10% | 992.5 hPa | 0 mm | - | - | - |
| 1777298731 | 28.89° C | 12% | 992.4 hPa | 0 mm | - | - | - |
| 1777298425 | 28.33° C | 13% | 992.5 hPa | 0 mm | - | - | - |
* Rain since midnight (hover to see other rain measurements)
** Current wind speed in m/s (hover to see current wind gust speed)